Decorah, Iowa, United States (52101)
Lat: 43.30N, Lon: 91.79W
Wx Zone: IAZ010
Local Info
Past Weather Observations for Today

NOTE: This archive is for the closest National Weather Service station to Decorah. Information may differ from the station used for current weather conditions.

Click here for Long-term Archive

Time Weather Temperature Dewpoint Humidity Pressure Winds Precip Visibility
14:55
Overcast
Fog
41°F / 5°C 41°F / 5°C 100% 29.71 in
(1006 mb)
SW 8.1 mph
(SW 13 kph)
- 1/4SM
14:35
Overcast
Fog
39°F / 4°C 39°F / 4°C 100% 29.74 in
(1007 mb)
SW 8.1 mph
(SW 13 kph)
- 1/4SM
14:15
Overcast
Fog
39°F / 4°C 39°F / 4°C 100% 29.74 in
(1007 mb)
SW 9.2 mph
(SW 15 kph)
- M1/4SM
13:50
Overcast
Fog
39°F / 4°C 39°F / 4°C 100% 29.74 in
(1007 mb)
SW 8.1 mph
(SW 13 kph)
- 1/4SM
13:35
Overcast
Fog
39°F / 4°C 39°F / 4°C 100% 29.74 in
(1007 mb)
SW 10.4 mph
(SW 17 kph)
- 1/2SM
13:15
Overcast
Fog And Mist
39°F / 4°C 37°F / 3°C 93% 29.77 in
(1008 mb)
SW 12.7 mph
(SW 20 kph)
- 1 1/4SM
12:35
Overcast
Fog And Mist
37°F / 3°C 37°F / 3°C 100% 29.77 in
(1008 mb)
SW 9.2 mph
(SW 15 kph)
- 2SM
12:15
Overcast
Fog And Mist
37°F / 3°C 37°F / 3°C 100% 29.77 in
(1008 mb)
SW 6.9 mph
(SW 11 kph)
- 1 1/2SM
11:55
Overcast
Fog And Mist
37°F / 3°C 37°F / 3°C 100% 29.77 in
(1008 mb)
SSE 8.1 mph
(SSE 13 kph)
- 1 3/4SM
11:35
Overcast
Fog And Mist
37°F / 3°C 37°F / 3°C 100% 29.8 in
(1009 mb)
Variable 6.9 mph
(Variable 11 kph)
- 2SM
11:15
Overcast
Fog And Mist
37°F / 3°C 37°F / 3°C 100% 29.8 in
(1009 mb)
Variable 4.6 mph
(Variable 7 kph)
- 2SM
10:55
Overcast
Fog And Mist
36°F / 2°C 36°F / 2°C 100% 29.8 in
(1009 mb)
S 6.9 mph
(S 11 kph)
- 1SM
10:35
Overcast
Fog And Mist
36°F / 2°C 36°F / 2°C 100% 29.83 in
(1010 mb)
SSE 8.1 mph
(SSE 13 kph)
- 1/2SM
10:15
Overcast
Fog
36°F / 2°C 36°F / 2°C 100% 29.83 in
(1010 mb)
Variable 5.8 mph
(Variable 9 kph)
- 1/2SM
09:55
Overcast
Fog
36°F / 2°C 36°F / 2°C 100% 29.83 in
(1010 mb)
Variable 6.9 mph
(Variable 11 kph)
- 1/2SM
09:35
Overcast
Fog
36°F / 2°C 36°F / 2°C 100% 29.83 in
(1010 mb)
Variable 6.9 mph
(Variable 11 kph)
- 1/2SM
09:15
Overcast
Fog
36°F / 2°C 36°F / 2°C 100% 29.83 in
(1010 mb)
SSE 6.9 mph
(SSE 11 kph)
- 1/4SM
08:55
Overcast
Fog
36°F / 2°C 36°F / 2°C 100% 29.83 in
(1010 mb)
S 6.9 mph
(S 11 kph)
- 1/2SM
08:35
Overcast
Fog
36°F / 2°C 36°F / 2°C 100% 29.83 in
(1010 mb)
S 6.9 mph
(S 11 kph)
- 1/2SM
07:55
Overcast
Fog
34°F / 1°C 34°F / 1°C 100% 29.86 in
(1011 mb)
S 5.8 mph
(S 9 kph)
- 1/2SM
07:35
Overcast
Fog And Mist
34°F / 1°C 34°F / 1°C 100% 29.86 in
(1011 mb)
SW 6.9 mph
(SW 11 kph)
- 1 1/4SM
07:15
Overcast
34°F / 1°C 34°F / 1°C 100% 29.89 in
(1012 mb)
Variable 4.6 mph
(Variable 7 kph)
-
06:55
Overcast
Fog And Mist
34°F / 1°C 34°F / 1°C 100% 29.89 in
(1012 mb)
Variable 6.9 mph
(Variable 11 kph)
- 1 1/2SM
06:35
Overcast
Fog And Mist
34°F / 1°C 34°F / 1°C 100% 29.89 in
(1012 mb)
S 4.6 mph
(S 7 kph)
- 2SM
05:55
Overcast
Fog And Mist
34°F / 1°C 34°F / 1°C 100% 29.89 in
(1012 mb)
SSE 8.1 mph
(SSE 13 kph)
- 2SM
05:35
Overcast
Fog And Mist
34°F / 1°C 34°F / 1°C 100% 29.89 in
(1012 mb)
S 6.9 mph
(S 11 kph)
- 1 1/4SM
05:15
Overcast
Fog And Mist
34°F / 1°C 32°F / 0°C 93% 29.89 in
(1012 mb)
Variable 6.9 mph
(Variable 11 kph)
- 1 1/4SM
04:55
Overcast
Fog And Mist
32°F / 0°C 32°F / 0°C 100% 29.92 in
(1013 mb)
SSE 8.1 mph
(SSE 13 kph)
- 2 1/2SM
04:35
Overcast
Fog And Mist
32°F / 0°C 32°F / 0°C 100% 29.92 in
(1013 mb)
S 4.6 mph
(S 7 kph)
- 3SM
04:15
Overcast
Fog And Mist
32°F / 0°C 32°F / 0°C 100% 29.92 in
(1013 mb)
SSE 6.9 mph
(SSE 11 kph)
- 3SM
03:55
Overcast
Fog And Mist
32°F / 0°C 30°F / -1°C 93% 29.92 in
(1013 mb)
S 6.9 mph
(S 11 kph)
- 3SM
03:35
Overcast
Fog And Mist
32°F / 0°C 30°F / -1°C 93% 29.92 in
(1013 mb)
S 9.2 mph
(S 15 kph)
- 2 1/2SM
03:15
Overcast
Fog And Mist
32°F / 0°C 30°F / -1°C 93% 29.95 in
(1014 mb)
SSE 9.2 mph
(SSE 15 kph)
- 2 1/2SM
02:55
Overcast
Fog And Mist
32°F / 0°C 30°F / -1°C 93% 29.95 in
(1014 mb)
SSE 8.1 mph
(SSE 13 kph)
- 3SM
02:35
Overcast
Fog And Mist
32°F / 0°C 30°F / -1°C 93% 29.95 in
(1014 mb)
SSE 10.4 mph
(SSE 17 kph)
- 2 1/2SM
02:15
Overcast
Fog And Mist
32°F / 0°C 30°F / -1°C 93% 29.98 in
(1015 mb)
SW 6.9 mph
(SW 11 kph)
- 4SM
01:55
Overcast
Fog And Mist
32°F / 0°C 28°F / -2°C 87% 29.98 in
(1015 mb)
SSE 11.5 mph
(SSE 19 kph)
- 5SM
01:35
Overcast
32°F / 0°C 28°F / -2°C 87% 29.98 in
(1015 mb)
SSE 11.5 mph
(SSE 19 kph)
- 7SM
01:15
Overcast
32°F / 0°C 28°F / -2°C 87% 29.98 in
(1015 mb)
SSE 6.9 mph
(SSE 11 kph)
- 8SM
00:55
Overcast
32°F / 0°C 27°F / -3°C 80% 29.98 in
(1015 mb)
S 10.4 mph
(S 17 kph)
- 10SM
00:35
Overcast
32°F / 0°C 27°F / -3°C 80% 29.98 in
(1015 mb)
SW 12.7 mph
(SW 20 kph)
- 10SM
00:15
Overcast
32°F / 0°C 25°F / -4°C 75% 29.98 in
(1015 mb)
SSE 15 mph
(SSE 24 kph)
- 10SM
Time Weather Temperature Dewpoint Humidity Pressure Winds Precip Visibility


Weather for websites

WeatherForYou.com, LLC is not responsible for any damages or problems caused by this service. Current weather conditions are obtained from the closest station including government and personal stations which may have varying degrees of accuracy. Weather forecasts are derived from the NOAA NDFD. Like all things, this site belongs to Jesus Christ... He just trusts me to maintain it. If you have any questions or comments email webmaster@weatherforyou.com

Copyright © 2014, WeatherForYou.com LLC. All rights reserved.